Regional Weather Roundup
Issued by NWS Northern Indiana

Home | Current Version | Previous Version | Graphics & Text | Print | Product List | Glossary On
Versions: 1 2 3 4 5 6 7 8 9 10 11 12 13 14 15 16 17 18 19 20 21 22 23 24 25 26 27 28 29 30 31 32 33 34 35 36 37 38 39 40 41 42 43 44 45 46 47 48 49 50
000
ASUS43 KIWX 251500
RWRIWX

KIWX WEATHER ROUNDUP
NATIONAL WEATHER SERVICE NORTHERN INDIANA
1100 AM EDT THU MAY 25 2017

NOTE: "FAIR" INDICATES FEW OR NO CLOUDS BELOW 12,000 FEET WITH NO
SIGNIFICANT WEATHER AND/OR OBSTRUCTIONS TO VISIBILITY.

* THESE STATIONS ARE NOT UNDER NWS QUALITY CONTROL. THEY ALSO MAY NOT
  REPORT WEATHER SUCH AS PRECIPITATION OR FOG.

INZ001>027-251600-
NORTHERN INDIANA

CITY           SKY/WX    TMP DP  RH WIND       PRES   REMARKS
GARY*          CLOUDY    54  52  94 NW17G29   29.62R
MICHIGAN CITY* CLOUDY    50  50 100 N8        29.60R
SOUTH BEND     CLOUDY    56  55  97 NW14      29.56R
GOSHEN         CLOUDY    59  55  87 NW14      29.51S
MONTICELLO*    CLOUDY    55  53  94 N15G23    29.56R FOG
ANGOLA*        CLOUDY    61  50  67 N7        29.48S
FORT WAYNE     DRIZZLE   60  58  92 N13       29.48R
PERU/GRISSOM   CLOUDY    59  59 100 NW13      29.51R

$$
INZ028>050-251600-
CENTRAL INDIANA

CITY           SKY/WX    TMP DP  RH WIND       PRES   REMARKS
LAFAYETTE      CLOUDY    57  55  93 NW13G24   29.56R
KOKOMO*        CLOUDY    58  56  93 NW18      29.51R FOG
MUNCIE*        LGT RAIN  63  59  87 N13       29.47R FOG
INDIANAPOLIS   DRIZZLE   55  54  96 NW20      29.53R FOG

$$
MIZ043>046-050>051-056>058-064>065-071>073-077>080-251600-
SOUTHWEST LOWER MICHIGAN

CITY           SKY/WX    TMP DP  RH WIND       PRES   REMARKS
BATTLE CREEK   CLOUDY    58  56  93 N10       29.52S
BENTON HARBOR  CLOUDY    54  50  86 VRB6      29.57R
COLDWATER*     CLOUDY    59  59 100 N10       29.49S FOG
HILLSDALE*     CLOUDY    59  55  88 N5        29.48S
HOLLAND        CLOUDY    60  54  80 VRB3      29.56R
GRAND RAPIDS   CLOUDY    58  57  97 N10       29.54S
KALAMAZOO      CLOUDY    58  54  86 N10       29.53S FOG
STURGIS*       CLOUDY    58  56  95 N10       29.50R FOG
THREE RIVERS*  CLOUDY    58  55  91 N8        29.52S FOG

$$
OHZ001>008-015>018-024>025-251600-
NORTHWEST OHIO

CITY           SKY/WX    TMP DP  RH WIND       PRES   REMARKS
DEFIANCE       LGT RAIN  59  57  93 N7        29.46S FOG
FINDLAY        CLOUDY    66  57  72 E3        29.42S
TOLEDO EXPRESS CLOUDY    62  59  90 N8        29.44F
TOLEDO METCALF CLOUDY    64  60  87 N9        29.46S
LIMA           PTSUNNY   65  60  84 NE6       29.43S

$$
AND FOR LAKE MICHIGAN COASTAL AND OPEN LAKE BUOY OBSERVATIONS

STATION/POSITION TEMP    WIND        PRES    VSBY  WAVE
                 AIR SEA DIR/SP/G                  HT/PER
                 (F)     (DEG/KT/KT) (MB)    (MI)  (FT/S)
CALUMET HARBOR    52     330/ 10/ 15 1002.5R
MICHIGAN CITY     48     320/ 20/ 22   N/A
BURNS HARBOR      49     330/ 17/ 21 1002.7R
SOUTH LAKE BUOY   46 45  360/ 16/ 17 1001.8          3/ 5
4 MI NW BRIDGMAN  53 56  360/ 14/ 17 1001.9R         5/ 5
MICHIGAN CITY     48 52  330/ 16/ 21   N/A           5/ 5

$$
&&




USA.gov is the U.S. government's official web portal to all federal, state and local government web resources and services.